EW5141 Weather Reports


Display with metric or nautical units.
time (UTC)temp
F
wind
direction
speed
MPH
gust
MPH
rain 1hr
in
rain 24hr
in
rain mn
in
humidity
%
barometer
mb
20260508100043 44 232 1.0 5.0 0.00 0.00 0.00 79 1012.9
20260508095543 44 232 0.0 5.0 0.00 0.00 0.00 78 1012.7
20260508095042 44 233 2.0 5.0 0.00 0.00 0.00 78 1012.8
20260508094604 44 233 2.0 5.0 0.00 0.00 0.00 77 1012.9
20260508094045 45 260 2.0 7.0 0.00 0.00 0.00 77 1013.0
20260508093542 45 265 2.0 4.0 0.00 0.00 0.00 77 1013.1
20260508093041 45 265 0.0 4.0 0.00 0.00 0.00 77 1013.2
20260508092542 45 265 2.0 4.0 0.00 0.00 0.00 77 1013.0
20260508092040 45 265 1.0 4.0 0.00 0.00 0.00 77 1013.0
20260508091543 45 265 1.0 4.0 0.00 0.00 0.00 77 1013.1
20260508091041 45 265 1.0 6.0 0.00 0.00 0.00 76 1013.0
20260508090541 45 265 1.0 6.0 0.00 0.00 0.00 76 1012.9
20260508090048 45 259 2.0 5.0 0.00 0.00 0.00 76 1012.9
20260508085540 45 266 2.0 9.0 0.00 0.00 0.00 76 1012.9
20260508085041 45 260 4.0 9.0 0.00 0.00 0.00 75 1012.9
20260508084539 45 262 3.0 7.0 0.00 0.00 0.00 76 1012.8
20260508084039 45 275 1.0 4.0 0.00 0.00 0.00 75 1012.8
20260508083542 44 274 0.0 3.0 0.00 0.00 0.00 75 1013.0
20260508083038 44 274 0.0 7.0 0.00 0.00 0.00 75 1012.9
20260508082538 44 279 2.0 10.0 0.00 0.00 0.00 75 1013.0
20260508082037 44 264 1.0 3.0 0.00 0.00 0.00 75 1012.9
20260508081557 44 264 2.0 4.0 0.00 0.00 0.00 75 1013.1
20260508081035 44 264 1.0 4.0 0.00 0.00 0.00 74 1013.2
20260508080535 44 264 2.0 6.0 0.00 0.00 0.00 74 1013.3
20260508080041 44 264 2.0 6.0 0.00 0.00 0.00 73 1013.3
20260508075535 44 264 2.0 7.0 0.00 0.00 0.00 73 1013.3
20260508075036 44 264 3.0 7.0 0.00 0.00 0.00 73 1013.3
20260508074534 44 264 3.0 7.0 0.00 0.00 0.00 73 1013.3
20260508074034 44 264 2.0 6.0 0.00 0.00 0.00 74 1013.3
20260508073534 44 264 2.0 4.0 0.00 0.00 0.00 74 1013.2
20260508073041 44 264 2.0 6.0 0.00 0.00 0.00 73 1013.1
20260508072533 44 264 2.0 6.0 0.00 0.00 0.00 73 1013.2
20260508072034 44 264 1.0 4.0 0.00 0.00 0.00 73 1013.2
20260508071541 44 264 3.0 4.0 0.00 0.00 0.00 73 1013.3
20260508071032 44 264 1.0 4.0 0.00 0.00 0.00 73 1013.3
20260508070533 44 264 2.0 4.0 0.00 0.00 0.00 74 1013.2
20260508070032 44 264 2.0 4.0 0.00 0.00 0.00 74 1013.2
20260508065533 44 264 1.0 5.0 0.00 0.00 0.00 74 1013.3
20260508065031 44 282 2.0 7.0 0.00 0.00 0.00 74 1013.4
20260508064532 44 278 3.0 7.0 0.00 0.00 0.00 74 1013.5
20260508064031 44 263 3.0 6.0 0.00 0.00 0.00 74 1013.5
20260508063531 43 265 2.0 6.0 0.00 0.00 0.00 73 1013.3
20260508063044 43 263 2.0 6.0 0.00 0.00 0.00 74 1013.2
20260508062532 43 265 1.0 3.0 0.00 0.00 0.00 74 1013.2
20260508062029 43 265 0.0 2.0 0.00 0.00 0.00 75 1013.2
20260508061529 43 265 0.0 2.0 0.00 0.00 0.00 75 1013.1
20260508061028 43 265 0.0 3.0 0.00 0.00 0.00 75 1013.1
20260508060528 43 265 2.0 4.0 0.00 0.00 0.00 75 1013.2
20260508060034 43 265 2.0 4.0 0.00 0.00 0.00 75 1013.3
20260508055529 43 265 1.0 4.0 0.00 0.00 0.00 73 1013.2
20260508055027 43 265 1.0 4.0 0.00 0.00 0.00 73 1013.1
20260508054529 43 265 0.0 0.0 0.00 0.00 0.00 73 1013.4
20260508054025 43 265 0.0 0.0 0.00 0.00 0.00 73 1013.4
20260508053525 43 265 0.0 0.0 0.00 0.00 0.00 74 1013.5
20260508053025 43 265 0.0 0.0 0.00 0.00 0.00 76 1013.6
20260508052529 43 265 0.0 0.0 0.00 0.00 0.00 77 1013.6
20260508052022 43 265 0.0 0.0 0.00 0.00 0.00 75 1013.5
20260508051522 44 265 0.0 0.0 0.00 0.00 0.00 72 1013.5
20260508051020 44 265 0.0 0.0 0.00 0.00 0.00 70 1013.5
20260508050518 45 265 0.0 0.0 0.00 0.00 0.00 69 1013.5
20260508050018 45 265 0.0 0.0 0.00 0.00 0.00 67 1013.5
20260508045517 45 265 0.0 0.0 0.00 0.00 0.00 67 1013.6
20260508045017 45 265 0.0 2.0 0.00 0.00 0.00 67 1013.7
20260508044521 45 265 0.0 3.0 0.00 0.00 0.00 68 1013.8
20260508044016 46 265 1.0 3.0 0.00 0.00 0.00 68 1013.8
20260508043514 46 265 2.0 3.0 0.00 0.00 0.00 66 1013.8
20260508043014 47 265 2.0 3.0 0.00 0.00 0.00 63 1013.8
20260508042518 47 265 1.0 4.0 0.00 0.00 0.00 63 1013.8
20260508042012 47 265 2.0 4.0 0.00 0.00 0.00 63 1013.7
20260508041511 47 265 2.0 5.0 0.00 0.00 0.00 63 1013.7
20260508041011 46 265 2.0 5.0 0.00 0.00 0.00 63 1013.7
20260508040510 46 277 3.0 4.0 0.00 0.00 0.00 63 1013.6
20260508040008 46 277 1.0 3.0 0.00 0.00 0.00 63 1013.6
20260508035510 46 277 1.0 4.0 0.00 0.00 0.00 63 1013.5
20260508035008 46 277 2.0 4.0 0.00 0.00 0.00 62 1013.5
20260508034508 46 277 2.0 4.0 0.00 0.00 0.00 62 1013.5
20260508034009 46 277 2.0 4.0 0.00 0.00 0.00 62 1013.4
20260508033508 46 277 2.0 4.0 0.00 0.00 0.00 61 1013.5
20260508033008 46 277 1.0 3.0 0.00 0.00 0.00 62 1013.5
20260508032510 45 277 1.0 3.0 0.00 0.00 0.00 62 1013.5
20260508032007 45 277 0.0 3.0 0.00 0.00 0.00 62 1013.6
20260508031508 46 277 1.0 3.0 0.00 0.00 0.00 62 1013.6
20260508031008 46 277 0.0 0.0 0.00 0.00 0.00 62 1013.5
20260508030510 46 277 0.0 0.0 0.00 0.00 0.00 62 1013.5
20260508030007 46 277 0.0 0.0 0.00 0.00 0.00 62 1013.5
20260508025507 46 277 0.0 1.0 0.00 0.00 0.00 61 1013.4
20260508025006 46 277 0.0 2.0 0.00 0.00 0.00 61 1013.5
20260508024506 46 277 0.0 2.0 0.00 0.00 0.00 60 1013.5
20260508024006 46 277 0.0 2.0 0.00 0.00 0.00 60 1013.6
20260508023506 46 277 1.0 2.0 0.00 0.00 0.00 59 1013.6
20260508023008 46 277 0.0 2.0 0.00 0.00 0.00 59 1013.5
20260508022506 46 277 0.0 2.0 0.00 0.00 0.00 59 1013.5
20260508022006 47 277 0.0 2.0 0.00 0.00 0.00 59 1013.4
20260508021505 47 277 0.0 1.0 0.00 0.00 0.00 58 1013.4
20260508021005 47 277 0.0 3.0 0.00 0.00 0.00 57 1013.4
20260508020504 48 277 0.0 4.0 0.00 0.00 0.00 56 1013.4
20260508020006 48 277 2.0 3.0 0.00 0.00 0.00 54 1013.5
20260508015504 48 277 1.0 3.0 0.00 0.00 0.00 54 1013.4
20260508015004 48 277 1.0 3.0 0.00 0.00 0.00 54 1013.5
20260508014508 48 277 1.0 3.0 0.00 0.00 0.00 55 1013.4
20260508014004 49 277 2.0 4.0 0.00 0.00 0.00 54 1013.4
20260508013503 49 277 2.0 4.0 0.00 0.00 0.00 54 1013.3
20260508013003 49 284 2.0 4.0 0.00 0.00 0.00 53 1013.2
20260508012506 49 288 1.0 4.0 0.00 0.00 0.00 53 1013.1
20260508012003 50 288 1.0 4.0 0.00 0.00 0.00 52 1013.0
20260508011502 50 288 1.0 3.0 0.00 0.00 0.00 52 1013.0
20260508011002 50 288 1.0 4.0 0.00 0.00 0.00 52 1013.0
20260508010502 50 288 1.0 5.0 0.00 0.00 0.00 51 1012.9
20260508010002 50 289 1.0 5.0 0.00 0.00 0.00 50 1013.0
20260508005502 50 286 2.0 4.0 0.00 0.00 0.00 50 1012.9
20260508005005 50 286 1.0 4.0 0.00 0.00 0.00 50 1012.9
20260508004502 50 285 2.0 5.0 0.00 0.00 0.00 50 1012.8
20260508004005 51 286 2.0 4.0 0.00 0.00 0.00 49 1012.8
20260508003503 51 286 1.0 4.0 0.00 0.00 0.00 49 1012.8
20260508003002 51 286 1.0 4.0 0.00 0.00 0.00 49 1012.7
20260508002504 51 288 1.0 4.0 0.00 0.00 0.00 49 1012.7
20260508002001 51 288 0.0 7.0 0.00 0.00 0.00 48 1012.7
20260508001600 51 293 2.0 8.0 0.00 0.00 0.00 48 1012.7
20260508001100 52 292 4.0 8.0 0.00 0.00 0.00 48 1012.7
20260508000601 52 277 2.0 10.0 0.00 0.00 0.00 48 1012.6
20260508000100 52 319 3.0 10.0 0.00 0.00 0.00 48 1012.5
20260507235600 52 295 2.0 11.0 0.00 0.00 0.00 48 1012.5
20260507235059 52 265 6.0 11.0 0.00 0.00 0.00 47 1012.4
20260507234600 52 263 4.0 10.0 0.00 0.00 0.00 48 1012.4
20260507234502 53 238 4.0 10.0 0.00 0.00 0.00 47 1012.3
20260507234059 53 263 5.0 11.0 0.00 0.00 0.00 47 1012.3
20260507233559 53 252 4.0 11.0 0.00 0.00 0.00 45 1012.2
20260507233059 53 269 5.0 11.0 0.00 0.00 0.00 45 1012.2
20260507232600 54 264 2.0 9.0 0.00 0.00 0.00 46 1012.3
20260507232058 54 5 3.0 9.0 0.00 0.00 0.00 46 1012.3
20260507231600 54 298 2.0 8.0 0.00 0.00 0.00 46 1012.3
20260507231058 54 254 2.0 8.0 0.00 0.00 0.00 46 1012.3
20260507230602 53 284 1.0 7.0 0.00 0.00 0.00 47 1012.4
20260507230105 53 212 1.0 6.0 0.00 0.00 0.00 47 1012.4
20260507225557 53 9 1.0 10.0 0.00 0.00 0.00 48 1012.4
20260507225057 54 355 3.0 11.0 0.00 0.00 0.00 46 1012.4
20260507224600 54 142 5.0 11.0 0.00 0.00 0.00 45 1012.4
20260507224056 54 286 4.0 10.0 0.00 0.00 0.00 46 1012.4
20260507223558 54 11 3.0 9.0 0.00 0.00 0.00 47 1012.4
20260507223056 54 285 3.0 13.0 0.00 0.00 0.00 47 1012.4
20260507222658 54 334 3.0 13.0 0.00 0.00 0.00 45 1012.4
20260507222057 54 284 2.0 10.0 0.00 0.00 0.00 48 1012.4
20260507221555 54 317 4.0 13.0 0.00 0.00 0.00 47 1012.4
20260507221054 55 263 6.0 17.0 0.00 0.00 0.00 45 1012.4
20260507220555 55 281 6.0 15.0 0.00 0.00 0.00 46 1012.4
20260507220054 55 360 5.0 18.0 0.00 0.00 0.00 46 1012.3
20260507215554 55 293 7.0 18.0 0.00 0.00 0.00 46 1012.3
20260507215053 55 268 6.0 14.0 0.00 0.00 0.00 48 1012.1
20260507214603 55 195 6.0 14.0 0.00 0.00 0.00 47 1012.0
20260507214054 55 338 5.0 14.0 0.00 0.00 0.00 49 1012.0
20260507213554 55 17 4.0 11.0 0.00 0.00 0.00 49 1011.9
20260507213056 54 250 3.0 12.0 0.00 0.00 0.00 51 1012.0
20260507212554 54 277 5.0 17.0 0.00 0.00 0.00 49 1011.8
20260507212055 55 281 8.0 17.0 0.00 0.00 0.00 48 1011.7
20260507211556 55 277 11.0 16.0 0.00 0.00 0.00 47 1011.6
20260507211051 55 279 2.0 15.0 0.00 0.00 0.00 51 1011.5
20260507210552 54 333 6.0 15.0 0.00 0.00 0.00 47 1011.4
20260507210059 55 305 6.0 13.0 0.00 0.00 0.00 47 1011.4
20260507205551 55 22 2.0 15.0 0.00 0.00 0.00 50 1011.3
20260507205052 55 246 9.0 18.0 0.00 0.00 0.00 46 1011.3
20260507204551 55 260 7.0 17.0 0.00 0.00 0.00 46 1011.3
20260507204055 56 271 7.0 16.0 0.00 0.00 0.00 45 1011.4
20260507203551 57 23 4.0 11.0 0.00 0.00 0.00 47 1011.3
20260507203104 56 257 2.0 15.0 0.00 0.00 0.00 48 1011.3
20260507202549 56 284 8.0 15.0 0.00 0.00 0.00 47 1011.1
20260507202049 55 307 5.0 14.0 0.00 0.00 0.00 45 1011.1
20260507201557 56 277 6.0 14.0 0.00 0.00 0.00 46 1011.2
20260507201050 56 286 3.0 13.0 0.00 0.00 0.00 48 1011.2
20260507200550 55 340 2.0 13.0 0.00 0.00 0.00 45 1011.3
20260507200103 56 320 4.0 13.0 0.00 0.00 0.00 46 1011.3
20260507195547 56 326 6.0 15.0 0.00 0.00 0.00 48 1011.2
20260507195048 56 279 8.0 15.0 0.00 0.00 0.00 47 1011.3
20260507194546 56 280 3.0 14.0 0.00 0.00 0.00 47 1011.4
20260507194045 56 340 8.0 14.0 0.00 0.00 0.00 46 1011.4
20260507193544 56 304 6.0 14.0 0.00 0.00 0.00 48 1011.5
20260507193048 56 274 7.0 16.0 0.00 0.00 0.00 50 1011.5
20260507192543 55 285 6.0 16.0 0.00 0.00 0.00 51 1011.6
20260507192043 55 258 3.0 12.0 0.00 0.00 0.00 48 1011.6
20260507191543 55 269 6.0 12.0 0.00 0.00 0.00 49 1011.7
20260507191143 55 5 5.0 12.0 0.00 0.00 0.00 49 1011.7
20260507190546 55 341 3.0 10.0 0.00 0.00 0.00 49 1011.7
20260507190042 55 13 3.0 10.0 0.00 0.00 0.00 49 1011.7
20260507185546 55 284 5.0 15.0 0.00 0.00 0.00 47 1011.7
20260507185042 56 277 6.0 15.0 0.00 0.00 0.00 46 1011.7
20260507184547 56 264 5.0 17.0 0.00 0.00 0.00 49 1011.7
20260507184041 56 262 9.0 17.0 0.00 0.00 0.00 50 1011.6
20260507183540 56 245 5.0 13.0 0.00 0.00 0.00 50 1011.6
20260507183046 56 294 8.0 15.0 0.00 0.00 0.00 50 1011.6
20260507182539 55 270 7.0 15.0 0.00 0.00 0.00 48 1011.6
20260507182037 55 59 2.0 12.0 0.00 0.00 0.00 49 1011.7
20260507181537 55 294 4.0 14.0 0.00 0.00 0.00 51 1011.7
20260507181035 55 273 5.0 13.0 0.00 0.00 0.00 49 1011.8
20260507180537 55 281 8.0 16.0 0.00 0.00 0.00 49 1011.8
20260507180038 54 294 6.0 16.0 0.00 0.00 0.00 50 1011.9
20260507175533 54 293 3.0 15.0 0.00 0.00 0.00 49 1012.0
20260507175033 54 298 8.0 15.0 0.00 0.00 0.00 46 1012.0
20260507174530 55 277 7.0 12.0 0.00 0.00 0.00 50 1012.1
20260507174032 54 281 4.0 12.0 0.00 0.00 0.00 49 1012.1
20260507173531 54 290 4.0 11.0 0.00 0.00 0.00 48 1012.1
20260507173032 54 313 4.0 11.0 0.00 0.00 0.00 48 1012.1
20260507172529 55 281 6.0 14.0 0.00 0.00 0.00 47 1012.2
20260507172027 55 288 5.0 15.0 0.00 0.00 0.00 49 1012.2
20260507171527 55 269 9.0 15.0 0.00 0.00 0.00 49 1012.2
20260507171026 54 272 5.0 15.0 0.00 0.00 0.00 51 1012.3
20260507170526 54 253 7.0 15.0 0.00 0.00 0.00 49 1012.4
20260507170025 54 276 3.0 12.0 0.00 0.00 0.00 53 1012.4
20260507165525 54 244 6.0 14.0 0.00 0.00 0.00 48 1012.4
20260507165024 54 292 5.0 15.0 0.00 0.00 0.00 51 1012.5
20260507164526 54 290 7.0 15.0 0.00 0.00 0.00 50 1012.4
20260507164023 54 215 5.0 15.0 0.00 0.00 0.00 52 1012.5
20260507163522 53 261 6.0 18.0 0.00 0.00 0.00 48 1012.4
20260507163022 54 211 7.0 18.0 0.00 0.00 0.00 48 1012.5
20260507162519 54 274 5.0 12.0 0.00 0.00 0.00 51 1012.4
20260507162017 53 350 3.0 13.0 0.00 0.00 0.00 52 1012.5
20260507161520 53 257 5.0 11.0 0.00 0.00 0.00 49 1012.5
20260507161016 53 269 7.0 12.0 0.00 0.00 0.00 48 1012.5
20260507160515 53 313 6.0 15.0 0.00 0.00 0.00 47 1012.5
20260507160013 53 276 6.0 15.0 0.00 0.00 0.00 47 1012.4
20260507155512 52 273 7.0 15.0 0.00 0.00 0.00 51 1012.4
20260507155012 53 242 6.0 15.0 0.00 0.00 0.00 49 1012.5
20260507154512 52 311 7.0 13.0 0.00 0.00 0.00 49 1012.5
20260507154017 52 248 5.0 15.0 0.00 0.00 0.00 50 1012.5
20260507153510 52 252 10.0 15.0 0.00 0.00 0.00 49 1012.6
20260507153010 52 279 8.0 16.0 0.00 0.00 0.00 51 1012.6
20260507152513 52 288 7.0 16.0 0.00 0.00 0.00 52 1012.6
20260507152008 52 248 4.0 13.0 0.00 0.00 0.00 51 1012.6
20260507151508 53 265 5.0 15.0 0.00 0.00 0.00 54 1012.6
20260507151007 52 272 8.0 15.0 0.00 0.00 0.00 52 1012.7
20260507150508 52 262 6.0 12.0 0.00 0.00 0.00 52 1012.7
20260507150010 52 281 6.0 13.0 0.00 0.00 0.00 54 1012.7
20260507145504 52 257 5.0 13.0 0.00 0.00 0.00 54 1012.8
20260507145003 52 275 5.0 11.0 0.00 0.00 0.00 57 1012.8
20260507144508 51 283 4.0 13.0 0.00 0.00 0.00 57 1012.9
20260507144001 51 227 7.0 13.0 0.00 0.00 0.00 55 1013.0
20260507143600 51 219 5.0 11.0 0.00 0.00 0.00 57 1012.9
20260507143112 51 284 7.0 11.0 0.00 0.00 0.00 58 1012.8
20260507142600 51 295 3.0 10.0 0.00 0.00 0.00 61 1013.0
20260507142059 51 238 5.0 10.0 0.00 0.00 0.00 60 1012.9
20260507141603 50 293 4.0 12.0 0.00 0.00 0.00 60 1013.0
20260507141101 51 306 6.0 12.0 0.00 0.00 0.00 60 1013.1
20260507140601 51 280 4.0 11.0 0.00 0.00 0.00 64 1013.2
20260507140057 50 269 5.0 10.0 0.00 0.00 0.00 65 1013.2
20260507135554 50 273 3.0 10.0 0.00 0.00 0.00 68 1013.3
20260507135054 49 269 5.0 11.0 0.00 0.00 0.00 68 1013.4
20260507134552 49 284 4.0 9.0 0.00 0.00 0.00 70 1013.4
20260507134050 48 269 3.0 10.0 0.00 0.00 0.00 72 1013.4
20260507133550 48 270 5.0 10.0 0.00 0.00 0.00 72 1013.5
20260507133101 48 273 5.0 10.0 0.00 0.00 0.00 73 1013.4
20260507132546 47 260 5.0 11.0 0.00 0.00 0.00 73 1013.5
20260507132045 47 282 6.0 11.0 0.00 0.00 0.00 74 1013.4
20260507131550 47 260 6.0 11.0 0.00 0.00 0.00 75 1013.4
20260507131042 46 279 4.0 9.0 0.00 0.00 0.00 78 1013.4
20260507130540 46 284 5.0 9.0 0.00 0.00 0.00 77 1013.4
20260507130054 46 236 5.0 9.0 0.00 0.00 0.00 78 1013.4
20260507125538 46 259 4.0 11.0 0.00 0.00 0.00 78 1013.3
20260507125036 45 261 5.0 10.0 0.00 0.00 0.00 79 1013.5
20260507124535 45 292 3.0 9.0 0.00 0.00 0.00 81 1013.4
20260507124034 45 265 4.0 9.0 0.00 0.00 0.00 82 1013.3
20260507123534 45 278 5.0 9.0 0.00 0.00 0.00 83 1013.4
20260507123032 44 246 3.0 8.0 0.00 0.00 0.00 83 1013.3
20260507122529 44 250 2.0 8.0 0.00 0.00 0.00 84 1013.4
20260507122030 44 260 3.0 8.0 0.00 0.00 0.00 84 1013.4
20260507121526 43 246 4.0 9.0 0.00 0.00 0.00 84 1013.3
20260507121025 43 249 4.0 10.0 0.00 0.00 0.00 84 1013.4
20260507120523 43 258 5.0 10.0 0.00 0.00 0.00 85 1013.3
20260507120026 42 265 5.0 10.0 0.00 0.00 0.00 86 1013.4
20260507115520 42 262 3.0 9.0 0.00 0.02 0.00 87 1013.3
20260507115018 42 252 2.0 6.0 0.00 0.02 0.00 87 1013.3
20260507114517 41 265 2.0 6.0 0.00 0.02 0.00 88 1013.3
20260507114016 41 238 2.0 6.0 0.00 0.02 0.00 88 1013.3
20260507113517 41 243 3.0 5.0 0.00 0.02 0.00 88 1013.3
20260507113015 41 232 2.0 6.0 0.00 0.02 0.00 88 1013.2
20260507112514 40 225 2.0 4.0 0.00 0.02 0.00 88 1013.2
20260507112010 40 234 2.0 4.0 0.00 0.02 0.00 89 1013.1
20260507111509 40 248 2.0 4.0 0.00 0.02 0.00 89 1013.1
20260507111007 40 261 1.0 3.0 0.00 0.02 0.00 88 1013.1
20260507110505 40 261 1.0 3.0 0.00 0.02 0.00 88 1013.1
20260507110004 40 261 0.0 0.0 0.00 0.02 0.00 88 1013.1
20260507105502 40 261 0.0 0.0 0.00 0.02 0.00 88 1013.1
20260507105005 40 261 0.0 1.0 0.00 0.02 0.00 89 1013.0
20260507104601 40 261 0.0 3.0 0.00 0.02 0.00 89 1013.0
20260507104100 39 261 0.0 3.0 0.00 0.02 0.00 89 1013.0
20260507103559 39 261 1.0 3.0 0.00 0.02 0.00 89 1012.9
20260507103058 39 261 1.0 3.0 0.00 0.02 0.00 89 1013.0
20260507102557 40 261 1.0 3.0 0.00 0.02 0.00 89 1012.9
20260507102056 39 261 1.0 3.0 0.00 0.02 0.00 89 1013.0
20260507101603 39 261 1.0 3.0 0.00 0.02 0.00 89 1012.9
20260507101053 39 261 0.0 0.0 0.00 0.02 0.00 88 1012.9
20260507100553 39 261 0.0 0.0 0.00 0.02 0.00 88 1012.9